THORAD AGENA D DEB, 42499

Orbit data source: Space-Track

THORAD AGENA D DEB, 42499 is space debris in SSO originally from a launch on Wed, 08 Apr 1970 UTC launched from the Air Force Western Test Range (AFWTR). Debris objects in space refer to the collection of defunct objects orbiting the Earth. Examples of debris include non-operational satellites, rocket bodies, and fragments generated from explosions, collisions, or faulty payload assembly.

Loading next visibility...
Identifier
42499, 1970-025RD
Orbit
SSO
Country
Flag of USUS
Related business
Manufacturer
Unknown
Mission
Spacecraft
Bus & Motor
Unknown
Mass
Unknown
Launch date (UTC)
1970-04-08 (56 years ago)
Launch vehicle
Unknown
Launch site
Air Force Western Test Range (AFWTR)
Object type
Payload
Rocket body
Debris
Shape & HBR
Unknown shape, 0.1 m
Radar Cross Section
Small (<0.1 m²)

Expand to show TLE details & history
Last TLE update: 5 days ago

TLE from 5 days ago
0 THORAD AGENA D DEB
1 42499U 70025RD  25291.91531258  .00001342  00000-0  13582-2 0  9996
2 42499 100.1002 182.6211 0007259  86.3962 273.8017 13.79222283598089
Epoch: 2025-10-18T21:58Z
TLE epoch observation values (Epoch: 2025-10-18T21:58:03.006Z)
Latitude
-0.00007°
Longitude
-174.53089°
Altitude
969.108 km
Speed
7.367 km/s
True Right ascension
12h 10m 29s
True Declination
0° 00' 00"
Sunlit
Object was in daylight at epoch
Visualization orbit readout
Latitude
Unknown
Longitude
Unknown
Altitude
Unknown
Speed
Unknown
Apparent Right ascension
Unknown
Apparent Declination
Unknown
Sunlit
N/A
Visualization observer readout
Local Sidereal Time
09:08:36
Azimuth
Unknown
Elevation
Unknown
Doppler factor
Unknown
Orbital elements
Apogee altitude
969.26 km
Perigee altitude
958.601 km
Semi-major axis
7,342.067 km
Eccentricity
0.00073
Inclination
100.1002°
RAAN
182.6211°
Arg. of periapsis
86.3962°
True anomaly
273.7187°
Mean anomaly
273.8017°
Eccentric anomaly
273.7602°
Mean motion
3.44997 °/min
Orbital period
104.35 mins
BSTAR
0.0013582
Loading maneuver chart data...
Computing Atmospheric mass density...

Documentation

Showing up to 5 results
|